Location: Sunkist
(34.0772°N, 117.1909°W)
Time: 15:04:46
(UTC+00:00)

ARGOS - Pass Details

Date: 13 April 2024
Orbit: 818 x 834 km, 98.4° (Epoch: 27 May)

Event Time Altitude Azimuth Distance (km) Brightness Sun altitude
Rises 12:45:14 0° 14° (NNE) 3,364 6.8 -7.7°
Reaches altitude 10° 12:47:36 10° 16° (NNE) 2,425 6.1 -7.2°
Maximum altitude 12:52:58 76° 102° (ESE) 847 3.4 -6.2°
Drops below altitude 10° 12:58:18 10° 188° (S) 2,404 5.4 -5.1°
Sets 13:00:38 0° 190° (S) 3,331 6.1 -4.6°
